GSAT-19 (42747 NORAD) Tracking and Keplerian Element Data

This shows tracking and keplerian element data for the satellite.

Feedback or suggestion? Click here.




ElementValue
Catalog42747
NameGSAT-19
Epoch Orbit2813
Epoch Day34.69313072
Epoch Year2025
RAAN274.7684
Inclination0.047
Eccentricity0.0003362
Argument of Perigee84.9638
Mean Anonmoly71.7563
Mean Motion1.00272635
Decay Rate1.29E-06
L11 42747U 17031A 25034.69313072 .00000129 00000+0 00000+0 0 9991
L22 42747 0.0470 274.7684 0003362 84.9638 71.7563 1.00272635 28136



Live tracking and technical data element details for GSAT-19 (NORAD 42747). GSAT-19 can be tracked NOW for your location showing map with azimuth and elevation plus other details from your city location.







IsCatalogInMostPopularTable: catalog: 42747, numindb: 649
Update: records affected: 1



GetName: 42747 GSAT-19

Hit Count: updated at: Fri, 14 Feb 2025 14:39:42 GMT